Temperature
20 20 19 19 19 18 18 18 17 17 17 16 16 16 16 16 15 15 15 15 15 15 15 15 15 15 15 15 15 15 15 15 15 15 15 15 15 15 14 14 14 14 14
20 20 19 19 19 18 18 18 17 17 17 16 16 16 16 16 15 15 15 15 15 15 15 15 15 15 15 15 15 15 14 14 15 15 15 14 14 14 14 14 14 14 14
20 20 19 19 18 18 18 18 18 17 17 16 16 16 16 16 15 15 15 15 15 15 15 15 15 15 15 14 14 14 14 14 14 15 15 15 14 14 14 14 14 14 14
21 20 19 19 18 18 18 18 18 17 17 16 16 16 16 16 16 15 15 15 15 15 15 15 15 15 15 15 14 14 14 14 14 15 15 15 15 14 14 14 14 14 14
21 20 19 19 18 18 18 18 17 17 17 16 16 16 16 16 16 16 15 15 15 15 15 15 15 15 15 15 15 14 14 14 14 14 15 15 15 15 14 14 14 14 14
21 20 19 19 18 18 18 18 17 17 17 17 16 16 16 16 16 16 15 15 15 15 15 15 15 15 15 15 15 15 15 15 15 14 14 14 14 14 14 14 14 14 14
20 20 19 19 18 18 18 17 17 17 17 16 16 16 16 16 16 16 15 15 15 15 15 15 15 15 15 15 15 15 15 15 15 15 14 14 14 14 14 14 14 14 13
20 20 19 18 18 18 17 17 17 17 17 16 16 16 16 16 16 16 15 15 15 15 15 15 15 15 15 15 15 15 15 15 15 14 14 14 14 14 14 14 14 14 13
20 19 19 18 18 17 17 17 17 17 17 16 16 16 16 16 16 16 15 15 15 15 15 15 15 15 15 15 15 14 15 14 14 14 14 14 14 14 14 14 14 14 13
20 19 19 18 18 17 17 17 17 17 16 16 16 16 16 16 16 15 15 15 15 15 15 15 15 15 15 15 15 15 15 14 14 14 14 14 14 14 14 14 14 14 14
20 19 19 18 18 17 17 17 17 17 16 16 16 16 16 16 16 15 15 15 15 15 15 15 15 15 15 15 15 14 14 14 14 14 14 14 14 14 14 13 13 13 13
20 19 19 18 18 17 17 17 17 16 16 16 16 16 16 16 16 15 15 15 15 15 15 15 15 15 15 15 15 14 14 14 14 14 14 14 14 13 13 13 13 13 13
20 19 19 18 18 17 17 17 17 16 16 16 16 16 16 16 16 15 15 15 15 15 15 15 15 15 15 14 14 14 14 14 14 14 14 14 13 13 13 13 13 13 13
19 19 18 18 17 17 17 17 17 16 16 16 16 16 16 16 15 15 15 15 15 15 15 15 15 15 15 14 14 14 14 14 14 14 14 14 14 13 13 13 13 13 12
19 19 18 18 17 17 17 17 16 16 16 16 16 16 15 15 15 15 15 15 15 15 15 15 15 15 14 14 14 14 14 14 14 13 13 13 13 13 13 13 13 13 12
19 18 18 18 17 17 17 16 16 16 16 16 16 15 15 15 15 15 15 15 15 15 15 15 15 14 14 14 14 14 14 13 13 13 13 13 13 13 13 13 13 12 12
19 18 18 17 17 17 17 16 16 16 16 15 15 15 15 15 15 15 15 14 14 15 14 14 14 14 14 14 14 13 13 13 13 13 13 13 13 13 12 12 12 12 12
18 18 17 17 17 17 16 16 16 16 16 15 15 15 15 15 14 14 14 14 14 14 14 14 14 14 14 13 13 13 13 13 13 13 13 12 12 12 12 12 12 12 12
17 17 17 17 17 16 16 16 16 15 15 15 15 15 14 14 14 14 14 14 14 14 14 14 13 13 13 13 13 13 13 13 13 12 12 12 12 12 12 12 12 12 11
17 17 16 16 16 16 16 16 15 15 15 15 15 14 14 14 14 14 14 14 13 13 13 13 13 13 13 13 13 13 12 12 12 12 12 12 12 12 12 12 11 11 11
17 16 16 16 16 15 15 15 15 15 15 14 14 14 14 14 14 13 13 13 13 13 13 13 12 12 12 12 12 12 12 12 12 12 12 12 12 11 11 11 11 11 11
16 16 16 15 15 15 15 15 15 15 14 14 14 14 14 13 13 13 13 13 13 12 12 12 12 12 12 12 12 12 12 12 12 12 12 11 11 11 11 11 11 11 10
16 16 15 15 15 15 15 15 14 14 14 14 14 13 13 13 13 13 13 12 12 12 12 12 12 12 12 12 12 12 12 11 11 11 11 11 11 11 11 11 11 10 10
15 15 15 15 14 14 14 14 14 14 13 13 13 13 13 12 12 12 12 12 12 11 11 11 11 11 11 11 11 11 11 11 11 11 11 11 11 10 10 10 10 10 10
15 15 14 14 14 14 14 14 13 13 13 13 12 12 12 12 12 12 12 12 12 11 11 11 11 11 11 11 11 11 11 11 11 11 11 10 10 10 10 10 10 10 9
14 14 14 14 14 13 13 13 13 13 12 12 12 12 12 12 12 11 11 11 11 11 11 11 11 11 11 11 11 11 11 11 10 10 10 10 10 10 9 9 9 9 9
Wind_Speed
7 6 5 5 5 4 4 5 5 4 3 2 2 2 2 2 2 2 4 4 5 6 6 5 5 4 4 3 4 4 4 2 2 3 3 2 3 4 3 3 4 6 7
8 7 6 6 4 5 4 5 4 4 4 3 2 2 3 2 3 2 2 3 4 5 5 4 4 4 3 4 4 4 2 1 2 1 1 1 2 3 3 2 3 4 5
8 8 7 6 5 5 4 4 4 4 5 4 2 2 2 2 2 2 2 3 5 5 4 4 4 4 3 3 3 2 2 1 1 2 2 2 1 1 2 2 3 3 3
7 7 7 7 6 5 4 4 4 4 4 4 3 2 2 2 2 2 2 2 4 4 4 3 3 4 3 3 2 2 1 1 1 1 2 1 2 2 1 2 2 3 4
6 7 7 7 6 6 5 3 4 4 4 4 4 2 2 1 2 3 3 2 3 3 3 3 3 3 3 3 3 2 2 1 1 1 1 2 2 1 2 1 1 2 2
7 7 7 6 6 6 5 4 5 4 4 3 4 3 3 2 3 3 2 2 2 2 2 3 2 2 3 3 3 3 2 2 2 1 1 1 1 1 1 2 1 1 1
7 7 8 7 6 6 6 5 5 4 3 3 3 4 3 3 3 3 2 2 2 2 2 2 2 2 3 3 3 2 2 2 2 2 1 1 1 0 1 2 1 1 1
7 7 7 7 6 6 5 5 5 5 3 3 3 3 3 2 2 2 2 2 2 3 3 2 2 3 3 3 2 1 2 1 2 2 2 1 1 1 1 1 2 1 1
7 7 7 7 7 6 5 5 5 5 4 3 3 3 3 3 2 2 3 2 2 2 3 3 2 3 3 2 2 1 2 2 2 2 2 2 1 1 1 1 2 3 2
6 7 7 7 7 6 6 5 5 5 4 3 3 3 3 3 2 2 3 3 3 3 2 2 2 3 3 2 2 1 2 3 2 2 2 2 1 2 2 2 2 1 2
6 7 7 6 6 6 5 5 4 4 3 3 3 4 4 3 3 2 2 3 3 3 3 3 2 3 3 3 3 1 1 1 2 2 3 3 3 2 2 2 2 2 2
5 6 7 6 6 6 5 5 5 5 4 3 3 4 4 4 4 4 3 3 3 2 2 3 3 3 3 2 4 2 1 1 2 2 3 3 3 3 2 2 2 2 2
5 5 5 6 5 5 5 4 4 4 4 3 3 3 4 4 3 3 3 3 3 3 2 2 3 3 2 2 3 3 2 2 2 3 3 3 3 2 2 2 2 1 2
6 5 5 5 4 4 4 3 3 3 4 4 3 3 3 3 3 2 2 2 2 2 2 3 3 3 2 2 2 2 2 2 2 3 3 4 4 3 2 2 2 2 2
6 6 5 5 5 5 4 4 3 3 4 4 3 3 3 3 3 3 2 2 1 2 2 3 3 2 2 2 3 2 2 2 2 3 4 5 6 6 4 3 2 3 2
5 5 5 5 5 4 5 4 4 3 3 4 4 3 3 3 3 3 3 2 1 2 2 3 3 3 3 5 4 3 1 1 2 2 3 4 5 6 5 5 4 4 3
3 4 4 5 4 4 4 4 4 3 3 3 3 3 3 3 3 3 3 2 2 2 2 2 3 3 3 5 4 3 1 0 1 2 2 2 4 5 3 3 2 1 1
2 2 2 3 4 4 4 4 4 4 4 4 4 4 3 4 3 3 3 2 2 2 1 2 2 3 3 5 4 2 0 1 1 2 2 2 3 3 3 2 2 1 1
3 2 2 2 2 3 4 4 4 4 4 3 3 3 4 4 4 4 3 2 2 2 2 2 2 3 3 4 4 3 1 1 1 1 2 3 3 3 3 2 1 1 1
2 2 2 2 2 2 3 4 4 3 3 3 3 3 3 4 4 3 3 2 2 2 2 2 2 3 3 5 5 4 1 1 1 1 2 4 4 4 3 2 1 0 0
3 3 3 2 2 3 3 3 3 3 3 3 3 3 3 3 3 3 3 2 2 2 2 2 2 3 4 5 6 5 2 1 1 1 2 2 4 4 3 2 1 1 1
3 4 3 3 2 3 3 2 2 2 3 3 3 3 3 2 3 3 3 3 3 2 2 2 2 1 3 4 6 6 4 1 1 1 1 2 4 3 2 1 1 0 1
3 4 4 4 3 3 3 3 3 3 3 3 3 3 3 2 3 3 3 2 2 2 2 1 1 1 1 2 5 5 4 2 1 0 1 2 4 2 1 2 1 0 0
2 3 4 4 3 3 3 3 3 3 3 3 3 3 3 2 2 2 2 2 2 2 2 2 1 1 1 2 2 1 2 2 1 0 0 2 2 2 2 1 1 2 2
2 3 4 4 4 3 3 4 4 4 3 3 3 3 3 3 2 1 1 2 2 2 3 2 2 2 2 3 4 3 2 2 2 2 1 1 1 1 2 2 2 2 2
2 3 4 4 4 4 4 3 4 5 4 3 3 3 2 2 2 2 1 2 0 2 2 3 3 2 4 5 5 5 5 4 4 3 2 2 2 2 3 3 2 2 3
Wind_Direction
143 133 134 127 124 115 111 116 119 114 102 94 92 94 87 74 66 45 39 48 69 82 80 74 72 75 75 70 69 74 75 64 67 66 62 48 71 79 75 74 77 75 82
143 138 142 139 141 133 134 132 122 111 99 82 83 108 103 99 94 65 45 59 74 83 99 105 100 94 86 73 67 70 67 47 50 68 79 67 39 24 58 85 94 88 78
149 150 150 143 144 140 139 132 126 118 111 111 90 81 88 78 92 83 53 55 74 81 92 106 112 116 112 107 99 82 81 55 13 49 67 80 81 16 24 63 87 89 81
149 150 148 146 147 141 136 135 130 125 124 127 113 112 120 111 120 120 119 95 92 92 88 103 117 116 112 107 107 95 75 69 15 355 22 84 121 113 59 14 56 82 84
152 151 149 144 144 137 133 134 127 118 116 111 112 111 105 117 113 107 107 101 95 104 109 95 92 105 117 113 107 99 77 62 53 29 17 32 37 72 127 115 48 54 65
149 146 138 130 128 126 130 130 119 117 115 125 145 156 139 134 119 115 117 117 110 98 98 96 94 102 109 114 124 132 120 88 68 58 46 55 52 18 93 130 128 108 93
143 143 138 138 136 134 138 138 130 129 140 160 168 158 151 148 141 144 154 146 131 131 130 107 103 93 96 99 100 125 127 126 120 94 55 50 60 63 81 107 113 105 117
145 145 146 144 138 138 145 150 148 150 159 171 168 151 142 140 144 149 143 130 125 132 128 118 116 108 97 97 100 94 110 105 108 104 104 84 44 45 74 116 114 98 87
143 145 147 148 147 153 159 161 158 160 166 176 162 148 146 144 149 144 131 127 124 117 124 140 138 124 110 97 94 83 105 82 79 82 88 91 74 40 42 64 116 132 128
144 148 150 152 155 160 162 162 161 162 165 182 178 160 152 147 145 133 136 145 138 123 134 137 136 129 127 123 105 86 101 113 110 103 87 67 59 46 50 53 46 66 130
150 153 156 160 158 154 156 160 161 159 167 184 176 158 150 149 147 144 143 134 133 144 161 147 128 123 125 130 120 120 119 123 135 128 113 93 71 67 54 46 45 42 78
136 144 152 153 152 154 163 166 167 165 172 184 169 157 157 160 161 154 154 155 160 158 156 146 139 129 122 131 136 143 131 121 105 109 111 113 99 77 55 55 64 66 66
127 127 135 144 150 154 163 168 167 162 156 157 159 162 163 161 161 157 163 171 161 152 150 142 144 137 135 135 138 144 141 122 120 112 115 116 114 112 87 80 76 78 79
141 134 136 141 150 154 157 163 160 150 145 146 156 164 167 162 162 157 155 159 157 163 166 145 136 134 135 125 119 116 102 105 100 101 102 101 105 107 97 87 69 81 82
141 142 146 147 152 157 157 155 151 151 154 151 159 168 160 144 139 143 146 139 147 147 137 128 121 111 111 103 100 100 107 127 124 113 109 113 112 102 99 96 81 80 83
149 145 148 146 152 156 157 155 156 159 158 159 156 153 146 141 144 145 131 114 99 97 87 102 113 115 105 101 92 80 78 131 137 133 127 131 126 119 118 115 111 116 123
148 155 162 158 156 157 158 158 161 157 152 154 146 142 136 134 140 134 120 120 116 101 92 98 107 115 110 118 116 108 45 330 145 136 131 132 128 130 129 131 133 121 156
119 135 155 156 158 155 149 149 151 152 156 151 147 138 141 139 138 134 133 144 125 122 135 141 136 123 122 126 121 115 113 344 152 150 140 134 123 121 120 146 164 190 193
144 144 147 140 136 139 142 140 139 142 140 138 142 145 146 146 147 149 151 151 141 143 161 158 138 133 135 139 134 131 161 201 208 123 105 123 123 115 111 121 148 161 247
131 136 140 131 136 132 136 147 147 143 146 149 154 147 145 148 154 159 159 153 147 160 162 173 178 165 153 156 149 150 155 195 175 135 105 94 113 117 119 133 134 173 279
141 134 140 138 154 144 132 146 151 161 158 148 149 143 139 147 154 155 151 150 158 162 168 186 193 174 161 163 159 156 166 193 180 145 133 130 130 135 139 130 137 203 186
152 149 147 154 157 146 147 159 162 158 133 129 135 142 145 161 158 149 156 166 164 163 180 197 205 171 152 155 164 164 175 164 128 152 134 133 139 138 145 144 160 61 43
169 160 160 163 161 160 162 171 163 145 141 144 153 158 156 161 153 151 160 164 153 165 198 205 193 166 132 141 154 167 180 185 151 68 127 143 155 151 170 207 209 129 142
182 167 164 167 178 180 174 168 156 154 160 166 166 162 155 150 145 143 159 169 179 191 200 197 202 189 153 131 136 165 186 184 187 204 111 168 189 196 183 197 217 210 201
213 185 180 181 188 185 187 171 159 164 179 185 171 163 159 161 162 142 150 181 199 196 190 199 201 195 204 199 174 173 187 191 200 181 174 170 184 209 202 199 204 204 208
222 204 191 186 192 192 194 179 169 177 189 193 174 169 165 158 159 145 91 41 163 180 172 186 196 213 208 193 185 188 193 196 195 180 194 201 201 207 210 206 210 208 215
Height
1523 1525 1527 1529 1530 1531 1532 1533 1534 1535 1536 1537 1538 1538 1538 1539 1539 1540 1540 1540 1541 1541 1541 1542 1542 1542 1543 1543 1544 1544 1545 1546 1546 1547 1547 1548 1548 1548 1548 1548 1548 1549 1549
1522 1524 1526 1528 1530 1531 1532 1533 1534 1535 1536 1537 1538 1538 1539 1540 1540 1540 1541 1541 1542 1542 1542 1543 1543 1543 1544 1544 1545 1545 1546 1547 1547 1548 1548 1549 1550 1549 1549 1550 1550 1550 1550
1520 1523 1525 1527 1529 1530 1532 1533 1534 1535 1536 1537 1538 1539 1539 1540 1541 1541 1542 1542 1542 1543 1543 1544 1544 1545 1545 1545 1546 1546 1547 1548 1549 1549 1549 1550 1550 1550 1551 1551 1551 1551 1551
1519 1521 1524 1526 1528 1530 1531 1533 1534 1535 1536 1537 1538 1538 1539 1540 1541 1542 1542 1543 1543 1544 1544 1545 1545 1546 1546 1546 1547 1547 1548 1548 1549 1549 1550 1550 1550 1551 1551 1552 1552 1552 1551
1517 1520 1522 1525 1527 1529 1531 1532 1533 1535 1536 1537 1538 1539 1540 1541 1541 1542 1543 1544 1544 1544 1545 1546 1546 1547 1547 1547 1547 1548 1548 1549 1549 1549 1550 1550 1550 1551 1551 1552 1552 1552 1552
1516 1518 1521 1524 1526 1528 1530 1531 1533 1534 1535 1536 1537 1538 1539 1540 1541 1542 1543 1544 1544 1545 1546 1546 1547 1547 1547 1548 1548 1548 1548 1549 1549 1549 1550 1550 1550 1550 1550 1551 1551 1552 1552
1514 1517 1520 1522 1525 1527 1529 1531 1532 1533 1535 1536 1537 1538 1539 1540 1541 1542 1543 1544 1544 1545 1546 1546 1547 1547 1548 1548 1548 1548 1549 1549 1549 1549 1550 1550 1550 1550 1550 1550 1551 1552 1552
1513 1516 1519 1521 1524 1526 1528 1530 1531 1533 1534 1535 1536 1538 1539 1540 1540 1541 1542 1543 1544 1545 1546 1546 1547 1547 1547 1548 1548 1548 1549 1549 1549 1549 1549 1549 1549 1549 1549 1550 1550 1551 1552
1513 1515 1518 1520 1523 1525 1527 1528 1530 1532 1533 1534 1536 1537 1538 1539 1540 1541 1542 1543 1544 1545 1545 1546 1546 1547 1547 1547 1548 1548 1548 1549 1549 1549 1549 1549 1549 1549 1549 1549 1550 1551 1551
1512 1515 1517 1519 1521 1523 1525 1527 1529 1530 1532 1533 1534 1535 1536 1538 1539 1540 1541 1542 1543 1544 1545 1545 1546 1546 1547 1547 1547 1547 1548 1548 1548 1548 1549 1549 1549 1549 1549 1549 1549 1550 1550
1511 1513 1516 1518 1520 1522 1524 1526 1527 1529 1530 1531 1532 1534 1535 1536 1538 1539 1540 1541 1542 1543 1544 1545 1545 1546 1546 1546 1547 1547 1547 1547 1548 1548 1548 1548 1548 1549 1549 1549 1549 1549 1550
1510 1512 1514 1516 1519 1521 1522 1524 1526 1527 1528 1529 1531 1532 1533 1535 1536 1538 1539 1540 1541 1542 1543 1544 1544 1545 1545 1546 1546 1546 1546 1547 1547 1547 1547 1548 1548 1548 1548 1549 1549 1549 1549
1509 1511 1513 1515 1517 1519 1521 1522 1524 1525 1526 1527 1529 1530 1532 1533 1535 1536 1537 1539 1540 1541 1542 1543 1543 1544 1544 1545 1545 1545 1546 1546 1546 1547 1547 1547 1547 1547 1548 1548 1548 1549 1549
1508 1510 1512 1514 1516 1517 1519 1521 1522 1523 1524 1526 1527 1528 1530 1532 1533 1535 1536 1537 1538 1540 1540 1541 1542 1542 1543 1544 1544 1544 1545 1545 1546 1546 1546 1546 1547 1547 1547 1548 1548 1548 1548
1507 1509 1511 1513 1515 1516 1518 1519 1520 1522 1523 1524 1525 1526 1528 1530 1531 1533 1535 1536 1537 1538 1539 1540 1540 1541 1542 1542 1542 1543 1543 1544 1545 1545 1545 1545 1545 1546 1546 1546 1547 1547 1547
1505 1508 1510 1511 1513 1515 1516 1517 1518 1520 1521 1522 1524 1525 1526 1528 1529 1531 1533 1534 1535 1536 1537 1538 1539 1539 1540 1541 1541 1542 1542 1542 1543 1543 1544 1544 1544 1544 1545 1545 1546 1546 1546
1504 1506 1508 1510 1511 1513 1514 1515 1516 1518 1519 1521 1522 1523 1525 1526 1527 1529 1530 1532 1533 1534 1535 1536 1537 1537 1538 1539 1539 1540 1540 1541 1541 1542 1542 1542 1543 1543 1544 1544 1544 1544 1545
1503 1504 1506 1508 1509 1511 1512 1514 1515 1516 1517 1519 1520 1521 1522 1524 1525 1527 1528 1529 1531 1532 1532 1534 1535 1535 1536 1537 1538 1538 1539 1539 1539 1540 1540 1541 1541 1542 1542 1542 1542 1543 1543
1501 1503 1504 1506 1507 1509 1510 1512 1513 1514 1515 1516 1518 1519 1520 1522 1523 1524 1526 1527 1528 1529 1530 1531 1532 1533 1534 1535 1535 1536 1537 1537 1538 1538 1539 1539 1539 1540 1540 1541 1540 1540 1541
1500 1501 1503 1504 1505 1507 1509 1510 1511 1512 1513 1514 1515 1517 1518 1519 1520 1522 1523 1524 1526 1527 1528 1529 1530 1531 1532 1533 1534 1534 1535 1535 1536 1536 1537 1537 1538 1538 1538 1539 1538 1538 1538
1498 1499 1501 1502 1503 1505 1506 1508 1509 1510 1511 1512 1513 1514 1516 1517 1518 1519 1521 1522 1523 1524 1525 1527 1528 1529 1530 1531 1531 1532 1532 1533 1534 1534 1535 1535 1536 1536 1536 1536 1536 1536 1536
1496 1497 1499 1500 1502 1503 1504 1505 1506 1508 1509 1510 1511 1512 1513 1515 1516 1517 1518 1520 1521 1522 1523 1524 1525 1527 1527 1528 1529 1530 1530 1531 1531 1532 1532 1533 1533 1534 1534 1534 1534 1534 1533
1494 1495 1497 1498 1499 1501 1502 1503 1504 1505 1506 1507 1508 1509 1511 1512 1514 1515 1515 1517 1518 1519 1520 1521 1523 1523 1525 1525 1526 1527 1527 1528 1529 1529 1530 1530 1530 1531 1531 1531 1531 1531 1530
1492 1493 1494 1495 1497 1498 1499 1501 1502 1502 1503 1504 1505 1507 1508 1509 1511 1512 1513 1514 1515 1516 1517 1518 1519 1520 1521 1522 1522 1523 1524 1525 1525 1526 1526 1527 1527 1527 1527 1528 1527 1527 1527
1489 1490 1491 1492 1494 1495 1497 1498 1499 1500 1501 1502 1503 1504 1505 1506 1507 1509 1510 1511 1512 1513 1514 1514 1516 1516 1517 1518 1519 1520 1520 1521 1521 1522 1523 1523 1523 1523 1524 1524 1524 1524 1524
1486 1487 1488 1489 1491 1492 1494 1495 1496 1497 1498 1499 1500 1500 1501 1503 1504 1505 1506 1507 1509 1510 1510 1511 1512 1513 1514 1515 1515 1516 1516 1517 1518 1518 1518 1518 1519 1519 1520 1520 1520 1520 1520